CW3794 Weather Reports


Display with metric or nautical units.
time (UTC)temp
F
wind
direction
speed
MPH
gust
MPH
rain 1hr
in
rain 24hr
in
rain mn
in
humidity
%
barometer
mb
20260901222403 97 222 0.0 0.0 0.00 0.00 0.00 37 1009.4
20260901221904 97 222 0.0 0.0 0.00 0.00 0.00 39 1009.4
20260901221403 96 222 0.0 1.0 0.00 0.00 0.00 39 1009.5
20260901220903 96 222 0.0 3.0 0.00 0.00 0.00 40 1009.7
20260901215904 96 190 0.0 0.0 0.00 0.00 0.00 40 1009.6
20260901215403 96 185 0.0 0.0 0.00 0.00 0.00 40 1009.8
20260901214903 96 183 0.0 0.0 0.00 0.00 0.00 40 1009.8
20260901214404 96 182 0.0 0.0 0.00 0.00 0.00 41 1009.8
20260901213904 96 182 0.0 1.0 0.00 0.00 0.00 40 1010.0
20260901212904 96 183 0.0 1.0 0.00 0.00 0.00 41 1010.2
20260901211904 95 246 0.0 0.0 0.00 0.00 0.00 41 1010.4
20260901211403 96 213 0.0 0.0 0.00 0.00 0.00 41 1010.4
20260901210903 96 213 0.0 5.0 0.00 0.00 0.00 41 1010.5
20260901210404 96 219 0.0 0.0 0.00 0.00 0.00 41 1010.5
20260901205904 96 219 0.0 0.0 0.00 0.00 0.00 41 1010.7
20260901205405 96 218 0.0 0.0 0.00 0.00 0.00 41 1010.8
20260901204905 95 218 0.0 0.0 0.00 0.00 0.00 42 1010.9
20260901204406 95 218 0.0 0.0 0.00 0.00 0.00 42 1011.0
20260901203905 95 218 0.0 0.0 0.00 0.00 0.00 42 1011.0
20260901203405 94 219 0.0 0.0 0.00 0.00 0.00 42 1011.1
20260901202905 94 218 0.0 3.0 0.00 0.00 0.00 43 1011.2
20260901201905 94 188 0.0 1.0 0.00 0.00 0.00 42 1011.4
20260901201406 94 186 0.0 0.0 0.00 0.00 0.00 42 1011.5
20260901200906 94 186 0.0 0.0 0.00 0.00 0.00 43 1011.5
20260901200406 94 186 1.0 5.0 0.00 0.00 0.00 43 1011.6
20260901195405 93 189 0.0 1.0 0.00 0.00 0.00 44 1011.7
20260901194405 93 188 0.0 2.0 0.00 0.00 0.00 44 1011.9
20260901193905 93 189 0.0 0.0 0.00 0.00 0.00 44 1011.9
20260901193406 93 189 0.0 0.0 0.00 0.00 0.00 43 1012.0
20260901192905 93 189 0.0 0.0 0.00 0.00 0.00 44 1012.1
20260901192405 92 189 0.0 0.0 0.00 0.01 0.00 44 1012.2
20260901191905 93 189 0.0 0.0 0.00 0.01 0.00 44 1012.3
20260901191405 93 189 0.0 2.0 0.00 0.01 0.00 45 1012.4
20260901190906 92 189 0.0 0.0 0.00 0.01 0.00 44 1012.5
20260901190405 92 189 0.0 0.0 0.00 0.01 0.00 46 1012.5
20260901185905 92 188 0.0 3.0 0.00 0.01 0.00 46 1012.6
20260901185406 91 189 0.0 0.0 0.00 0.01 0.00 45 1012.6
20260901184905 91 189 0.0 0.0 0.00 0.01 0.00 45 1012.6
20260901183905 91 189 1.0 3.0 0.00 0.01 0.00 45 1012.7
20260901183405 91 190 0.0 0.0 0.00 0.01 0.00 45 1012.9
20260901182905 91 189 0.0 0.0 0.00 0.01 0.00 46 1012.9
20260901182405 91 189 0.0 0.0 0.00 0.01 0.00 45 1012.9
20260901181405 91 189 0.0 0.0 0.00 0.01 0.00 46 1013.1
20260901180905 90 188 0.0 0.0 0.00 0.01 0.00 46 1013.2
20260901180405 90 188 0.0 0.0 0.00 0.01 0.00 46 1013.2
20260901175905 90 189 0.0 5.0 0.00 0.01 0.00 46 1013.2
20260901175405 90 189 0.0 0.0 0.00 0.01 0.00 46 1013.2
20260901174905 90 189 0.0 0.0 0.00 0.01 0.00 47 1013.2
20260901174405 90 189 0.0 2.0 0.00 0.01 0.00 47 1013.3
20260901173905 89 190 0.0 6.0 0.00 0.01 0.00 47 1013.3
20260901173406 89 193 0.0 3.0 0.00 0.01 0.00 47 1013.4
20260901172905 89 193 0.0 0.0 0.00 0.01 0.00 48 1013.5
20260901172405 89 192 0.0 3.0 0.00 0.01 0.00 49 1013.5
20260901171906 89 193 0.0 3.0 0.00 0.01 0.00 49 1013.5
20260901171406 88 192 0.0 3.0 0.00 0.01 0.00 48 1013.6
20260901170906 89 193 1.0 5.0 0.00 0.01 0.00 48 1013.5
20260901165905 88 205 0.0 2.0 0.00 0.01 0.00 50 1013.3
20260901165406 88 172 1.0 6.0 0.00 0.01 0.00 49 1013.3
20260901164905 88 171 0.0 2.0 0.00 0.04 0.00 49 1013.3
20260901164405 88 168 1.0 5.0 0.00 0.06 0.00 50 1013.2
20260901163905 88 158 1.0 6.0 0.00 0.07 0.00 49 1013.3
20260901163405 87 157 0.0 0.0 0.00 0.07 0.00 50 1013.3
20260901162905 87 157 0.0 0.0 0.00 0.07 0.00 50 1013.2
20260901162405 87 157 0.0 0.0 0.00 0.07 0.00 51 1013.2
20260901161905 87 158 0.0 0.0 0.00 0.07 0.00 51 1013.2
20260901161405 87 157 0.0 0.0 0.00 0.07 0.00 52 1013.1
20260901160905 86 158 0.0 0.0 0.00 0.07 0.00 52 1013.2
20260901160405 86 157 0.0 0.0 0.00 0.07 0.00 52 1013.1
20260901155905 86 157 0.0 1.0 0.00 0.07 0.00 52 1013.0
20260901154405 85 157 0.0 0.0 0.00 0.07 0.00 53 1013.0
20260901153905 85 158 0.0 1.0 0.00 0.08 0.00 53 1013.0
20260901152905 85 157 0.0 0.0 0.00 0.12 0.00 55 1012.8
20260901152405 84 158 0.0 0.0 0.00 0.12 0.00 57 1012.8
20260901151905 84 158 0.0 0.0 0.00 0.12 0.00 57 1012.8
20260901151405 84 158 0.0 0.0 0.00 0.12 0.00 59 1012.7
20260901150906 83 158 0.0 0.0 0.00 0.13 0.00 59 1012.8
20260901150405 83 157 0.0 0.0 0.00 0.15 0.00 60 1012.8
20260901145906 82 158 0.0 0.0 0.00 0.19 0.00 61 1012.8
20260901145405 82 157 0.0 0.0 0.00 0.19 0.00 62 1012.8
20260901144905 81 158 0.0 0.0 0.00 0.20 0.00 64 1013.0
20260901143905 80 158 0.0 0.0 0.00 0.20 0.00 66 1012.9
20260901143405 79 158 0.0 0.0 0.00 0.20 0.00 67 1013.0
20260901142905 79 158 0.0 0.0 0.00 0.21 0.00 67 1013.1
20260901142405 79 158 0.0 0.0 0.00 0.21 0.00 68 1013.1
20260901141905 78 158 0.0 0.0 0.00 0.21 0.00 68 1013.1
20260901140905 78 158 0.0 0.0 0.00 0.21 0.00 69 1013.1
20260901135405 77 158 0.0 0.0 0.00 0.21 0.00 69 1012.8
20260901133906 76 158 0.0 0.0 0.00 0.21 0.00 70 1012.7
20260901133405 76 157 0.0 0.0 0.00 0.21 0.00 70 1012.6
20260901132905 76 157 0.0 0.0 0.00 0.21 0.00 71 1012.6
20260901131905 75 157 0.0 0.0 0.00 0.21 0.00 71 1012.7
20260901131405 75 157 0.0 0.0 0.00 0.21 0.00 71 1012.6
20260901130905 75 158 0.0 0.0 0.00 0.21 0.00 71 1012.5
20260901130405 75 158 0.0 0.0 0.00 0.21 0.00 71 1012.5
20260901125905 75 157 0.0 0.0 0.00 0.21 0.00 71 1012.4
20260901124405 75 158 0.0 0.0 0.00 0.21 0.00 71 1012.5
20260901123905 75 158 0.0 0.0 0.00 0.21 0.00 71 1012.4
20260901123405 75 158 0.0 0.0 0.00 0.21 0.00 71 1012.4
20260901122905 75 158 0.0 0.0 0.00 0.21 0.00 71 1012.3
20260901122404 75 158 0.0 0.0 0.00 0.21 0.00 72 1012.3
20260901121905 75 158 0.0 0.0 0.00 0.21 0.00 72 1012.2
20260901121405 75 157 0.0 0.0 0.00 0.21 0.00 72 1012.2
20260901120905 75 158 0.0 0.0 0.00 0.21 0.00 72 1012.1
20260901120405 75 157 0.0 0.0 0.00 0.21 0.00 72 1012.1
20260901115905 75 158 0.0 0.0 0.00 0.21 0.00 72 1012.1
20260901115405 75 158 0.0 0.0 0.00 0.21 0.00 72 1012.0
20260901114905 75 158 0.0 0.0 0.00 0.21 0.00 72 1012.0
20260901114404 75 157 0.0 0.0 0.00 0.21 0.00 72 1012.0
20260901113405 75 158 0.0 0.0 0.00 0.21 0.00 72 1012.0
20260901112905 75 157 0.0 0.0 0.00 0.21 0.00 72 1012.0
20260901111905 75 156 0.0 0.0 0.00 0.21 0.00 73 1011.8
20260901111405 75 157 0.0 0.0 0.00 0.21 0.00 73 1011.8
20260901110905 75 158 0.0 0.0 0.00 0.21 0.00 73 1011.9
20260901110405 75 157 0.0 0.0 0.00 0.21 0.00 73 1011.9
20260901105905 75 157 0.0 0.0 0.00 0.21 0.00 72 1011.9
20260901105405 75 158 0.0 0.0 0.00 0.21 0.00 72 1011.9
20260901104405 75 158 0.0 0.0 0.00 0.21 0.00 72 1011.9
20260901103905 75 157 0.0 0.0 0.00 0.21 0.00 72 1011.8
20260901103405 75 158 0.0 0.0 0.00 0.21 0.00 72 1011.8
20260901102905 75 157 0.0 0.0 0.00 0.21 0.00 72 1011.9
20260901102405 75 158 0.0 0.0 0.00 0.21 0.00 72 1011.9
20260901101405 76 158 0.0 0.0 0.00 0.21 0.00 71 1011.9
20260901100905 76 158 0.0 0.0 0.00 0.21 0.00 71 1011.9
20260901100405 76 158 0.0 0.0 0.00 0.21 0.00 71 1011.9
20260901095905 76 158 0.0 0.0 0.00 0.21 0.00 71 1012.0
20260901095405 76 158 0.0 0.0 0.00 0.21 0.00 71 1012.0
20260901094905 76 158 0.0 0.0 0.00 0.21 0.00 71 1012.0
20260901094405 76 158 0.0 0.0 0.00 0.21 0.00 71 1012.0
20260901093405 76 158 0.0 0.0 0.00 0.21 0.00 71 1012.1
20260901092905 76 158 0.0 0.0 0.00 0.21 0.00 71 1012.0
20260901091405 77 158 0.0 0.0 0.00 0.21 0.00 70 1012.0
20260901090905 77 158 0.0 0.0 0.00 0.21 0.00 69 1012.1
20260901090405 77 158 0.0 0.0 0.00 0.21 0.00 69 1012.1
20260901085905 77 158 0.0 0.0 0.00 0.21 0.00 69 1012.1
20260901085405 77 157 0.0 0.0 0.00 0.21 0.00 69 1012.2
20260901084905 77 158 0.0 0.0 0.00 0.21 0.00 69 1012.2
20260901083904 77 158 0.0 0.0 0.00 0.21 0.00 69 1012.3
20260901083405 77 158 0.0 0.0 0.00 0.21 0.00 69 1012.3
20260901082905 77 158 0.0 0.0 0.00 0.21 0.00 69 1012.2
20260901082405 77 158 0.0 0.0 0.00 0.21 0.00 69 1012.3
20260901081905 77 157 0.0 0.0 0.00 0.21 0.00 69 1012.4
20260901081405 77 157 0.0 0.0 0.00 0.21 0.00 69 1012.4
20260901080905 77 158 0.0 0.0 0.00 0.21 0.00 69 1012.4
20260901075904 78 158 0.0 0.0 0.00 0.21 0.00 68 1012.4
20260901074905 78 158 0.0 0.0 0.00 0.21 0.00 68 1012.4
20260901074405 78 158 0.0 0.0 0.00 0.21 0.00 67 1012.4
20260901073905 78 158 0.0 0.0 0.00 0.21 0.00 67 1012.4
20260901073405 79 158 0.0 0.0 0.00 0.21 0.00 66 1012.4
20260901072905 79 158 0.0 0.0 0.00 0.21 0.00 66 1012.4
20260901072404 79 158 0.0 0.0 0.00 0.21 0.00 65 1012.3
20260901071405 79 158 0.0 0.0 0.00 0.21 0.00 63 1012.2
20260901070905 79 158 0.0 0.0 0.00 0.21 0.00 62 1012.2
20260901070408 79 158 0.0 0.0 0.00 0.21 0.00 62 1012.2
20260901065905 79 158 0.0 0.0 0.00 0.21 0.21 62 1012.3
20260901065405 79 158 0.0 0.0 0.00 0.21 0.21 61 1012.3
20260901064905 79 158 0.0 0.0 0.00 0.23 0.21 60 1012.3
20260901064405 80 157 0.0 0.0 0.00 0.23 0.21 60 1012.2
20260901063905 80 158 0.0 0.0 0.00 0.24 0.21 60 1012.1
20260901063405 80 158 0.0 0.0 0.00 0.24 0.21 59 1012.1
20260901062405 80 157 0.0 0.0 0.00 0.26 0.21 59 1012.1
20260901061905 80 157 0.0 0.0 0.00 0.27 0.21 58 1012.0
20260901061405 80 158 0.0 0.0 0.00 0.27 0.21 58 1011.9
20260901060405 80 158 0.0 0.0 0.00 0.28 0.21 57 1011.9
20260901055905 80 158 0.0 0.0 0.00 0.28 0.21 57 1012.0
20260901055405 81 157 0.0 0.0 0.00 0.29 0.21 57 1011.9
20260901054405 81 158 0.0 0.0 0.00 0.29 0.21 57 1011.9
20260901053905 81 158 0.0 0.0 0.00 0.29 0.21 57 1011.9
20260901053405 81 157 0.0 0.0 0.00 0.29 0.21 57 1011.9
20260901051905 82 157 0.0 0.0 0.00 0.29 0.21 56 1011.8
20260901051405 82 158 0.0 0.0 0.00 0.29 0.21 56 1011.8
20260901050905 82 157 0.0 0.0 0.00 0.29 0.21 56 1011.7
20260901050404 82 158 0.0 0.0 0.00 0.29 0.21 56 1011.8
20260901045905 82 158 0.0 0.0 0.00 0.29 0.21 56 1011.8
20260901044905 82 158 0.0 0.0 0.00 0.29 0.21 56 1011.9
20260901044405 82 158 0.0 0.0 0.00 0.29 0.21 56 1011.8
20260901043905 82 157 0.0 0.0 0.00 0.29 0.21 55 1011.9
20260901042405 82 158 0.0 0.0 0.00 0.29 0.21 54 1011.9
20260901041904 82 158 0.0 0.0 0.00 0.29 0.21 53 1011.9
20260901041405 82 158 0.0 0.0 0.00 0.29 0.21 53 1011.9
20260901040905 82 158 0.0 0.0 0.00 0.29 0.21 54 1011.8
20260901040405 82 158 0.0 0.0 0.00 0.29 0.21 54 1011.8
20260901035904 82 157 0.0 0.0 0.00 0.29 0.21 55 1011.8
20260901035404 82 158 0.0 0.0 0.00 0.29 0.21 55 1011.6
20260901034905 82 158 0.0 0.0 0.00 0.29 0.21 55 1011.5
20260901033905 82 158 0.0 0.0 0.00 0.29 0.21 55 1011.5
20260901033405 82 158 0.0 0.0 0.00 0.29 0.21 55 1011.5
20260901032904 83 157 0.0 0.0 0.00 0.29 0.21 54 1011.4
20260901032404 83 158 0.0 0.0 0.00 0.29 0.21 54 1011.3
20260901031905 82 158 0.0 0.0 0.00 0.29 0.21 54 1011.2
20260901031405 82 158 0.0 0.0 0.00 0.29 0.21 55 1011.1
20260901030905 82 158 0.0 0.0 0.00 0.29 0.21 55 1011.0
20260901030405 82 158 0.0 0.0 0.00 0.29 0.21 54 1010.8
20260901025905 82 158 0.0 0.0 0.00 0.29 0.21 54 1010.6
20260901025405 82 158 0.0 0.0 0.00 0.29 0.21 54 1010.5
20260901023905 83 158 0.0 0.0 0.00 0.29 0.21 53 1010.3
20260901022904 83 158 0.0 0.0 0.00 0.29 0.21 53 1010.3
20260901021905 83 158 0.0 0.0 0.00 0.29 0.21 53 1010.3
20260901021405 83 159 0.0 0.0 0.00 0.29 0.21 53 1010.3
20260901020905 84 158 0.0 0.0 0.00 0.29 0.21 52 1010.4
20260901020405 84 157 0.0 0.0 0.00 0.29 0.21 52 1010.4
20260901015904 84 158 0.0 0.0 0.00 0.29 0.21 52 1010.2
20260901015405 84 158 0.0 0.0 0.00 0.29 0.21 52 1010.1
20260901014905 84 158 0.0 0.0 0.00 0.29 0.21 51 1010.0
20260901014404 84 158 0.0 0.0 0.00 0.29 0.21 51 1010.0
20260901013905 84 158 0.0 0.0 0.00 0.29 0.21 51 1010.1
20260901013404 85 158 0.0 0.0 0.00 0.29 0.21 51 1010.1
20260901012904 85 158 0.0 0.0 0.00 0.29 0.21 51 1010.2
20260901012404 85 158 0.0 0.0 0.00 0.29 0.21 51 1010.1
20260901011905 85 158 0.0 0.0 0.00 0.29 0.21 51 1010.1
20260901011404 85 158 0.0 0.0 0.00 0.29 0.21 51 1010.3
20260901010405 85 158 0.0 0.0 0.00 0.29 0.21 50 1010.2
20260901005905 85 158 0.0 0.0 0.00 0.29 0.21 50 1010.0
20260901005405 86 158 0.0 0.0 0.00 0.29 0.21 50 1010.0
20260901004904 86 158 0.0 0.0 0.00 0.29 0.21 50 1009.9
20260901004405 86 157 0.0 0.0 0.00 0.29 0.21 50 1009.7
20260901003904 86 157 0.0 0.0 0.00 0.29 0.21 51 1009.8
20260901003405 86 157 0.0 0.0 0.00 0.29 0.21 50 1009.9
20260901002405 86 157 0.0 0.0 0.00 0.29 0.21 51 1010.0
20260901001904 86 157 0.0 0.0 0.00 0.29 0.21 50 1010.1
20260901001404 86 157 0.0 0.0 0.00 0.29 0.21 51 1010.1
20260901000905 86 157 0.0 0.0 0.00 0.29 0.21 50 1010.2
20260901000406 86 157 0.0 3.0 0.00 0.29 0.21 49 1010.2
20260831235904 87 157 0.0 0.0 0.00 0.29 0.21 51 1010.3
20260831234904 87 157 0.0 0.0 0.00 0.29 0.21 49 1010.4
20260831234404 87 157 0.0 0.0 0.00 0.29 0.21 49 1010.5
20260831233404 87 157 0.0 0.0 0.00 0.29 0.21 48 1010.6
20260831232905 87 159 0.0 0.0 0.00 0.29 0.21 50 1010.6
20260831231905 87 158 0.0 10.0 0.00 0.29 0.21 49 1010.6
20260831231405 87 149 0.0 0.0 0.00 0.29 0.21 49 1010.6
20260831230905 87 150 0.0 0.0 0.00 0.29 0.21 50 1010.6
20260831230404 87 149 0.0 3.0 0.00 0.29 0.21 49 1010.6
20260831225905 87 144 0.0 0.0 0.00 0.29 0.21 49 1010.6
20260831224905 87 150 0.0 0.0 0.00 0.29 0.21 49 1010.7
20260831224405 87 152 0.0 0.0 0.00 0.29 0.21 51 1010.7
20260831223405 86 153 0.0 0.0 0.00 0.29 0.21 55 1010.8
20260831222904 86 153 0.0 0.0 0.00 0.29 0.21 55 1011.0